[[{"header":{"parameterUnit":"m.s-1","parameterCategory":1,"la1":30.2991,"la2":30.254,"lo1":-89.0895,"lo2":-89.0444,"dy":0.0017,"dx":0.0017,"nx":28,"ny":28,"refTime":"2024-06-25T21:00:00:Z","depth":0,"parameterNumber":2,"parameterNumberName":"U-component_of_WINDS"},"data":[0,0,0,0,0,0,0,0,0,0,0,0,0,0,0,0,0,0,0,0,0,0,0,0,0,0,0,0,0,0,0,0,0,0,0,0,0,0,0,0,0,0,0,0,0,0,0,0,0,0,0,0,0,0,0,0,0,0,3.2912,3.2914,0,3.3113,3.3115,3.3118,3.3093,3.3089,3.3086,3.3083,3.3297,3.3306,3.3315,0,0,0,0,0,0,0,0,0,0,0,0,0,3.2513,3.2521,3.2912,3.2914,3.2917,3.3113,3.3115,3.3118,3.3093,3.3089,3.3085,3.3082,3.3294,3.3305,3.3315,0,0,0,0,0,0,0,0,0,0,0,0,0,3.2698,3.2523,3.2911,3.2928,3.2931,3.3112,3.3115,3.3119,3.3094,3.3089,3.3084,3.308,3.3291,3.3304,3.3317,3.3497,0,0,3.3357,3.3363,0,0,0,0,0,0,0,0,3.2687,3.2713,3.2923,3.2927,3.2931,3.3072,3.3053,3.3246,3.3095,3.3033,3.3083,3.3077,3.3227,3.3245,3.3294,3.3507,3.3516,3.3358,3.3366,3.3372,3.3375,0,0,0,0,0,0,0,3.2675,3.2704,3.2991,3.2926,3.2931,3.2928,3.2948,3.309,3.3155,3.3038,3.3036,3.306,3.3228,3.3281,3.3299,3.3519,3.3358,3.3369,3.3378,3.3383,3.3891,3.3896,0,0,0,0,0,0,3.2657,3.2693,3.2985,3.2997,3.2794,3.2939,3.2962,3.3032,3.3154,3.3167,3.3064,3.3058,3.3261,3.3284,3.3306,3.3526,3.3372,3.3384,3.3392,3.3885,3.3892,3.3898,0,0,0,0,0,0,3.2648,3.2683,3.2977,3.2845,3.2882,3.2951,3.303,3.3039,3.3092,3.3173,3.3186,3.3106,3.3258,3.3288,3.3449,3.3533,3.339,3.3402,3.3879,3.3887,3.3895,3.3966,0,0,0,0,0,0,3.2637,3.268,3.2747,3.2847,3.2889,3.3114,3.3035,3.3046,3.3113,3.3108,3.3216,3.3229,3.3257,3.343,3.3462,3.3548,3.3412,3.3871,3.3882,3.3892,3.3956,3.3975,3.3992,0,0,0,0,0,3.2623,3.2761,3.2751,3.2786,3.2974,3.3119,3.3144,3.3171,3.312,3.319,3.3242,3.3226,3.3518,3.3446,3.3483,3.3574,3.3866,3.3879,3.3892,3.3948,3.3972,3.3991,0,0,0,0,0,0,3.2672,3.2774,3.2764,3.2938,3.302,3.3115,3.3203,3.3194,3.3295,3.3285,3.3317,3.3341,3.3505,3.3556,3.3474,3.3755,3.3686,3.3706,3.3716,3.3739,3.3757,3.3742,3.3423,0,0,0,0,0,3.2703,3.2809,3.2893,3.3039,3.308,3.3134,3.3199,3.3212,3.3299,3.3334,3.3399,3.3486,3.3598,3.3671,3.3778,3.3963,3.3987,3.4044,3.4061,3.4076,3.4094,3.4197,3.4223,3.394,3.3939,3.3939,0,0,3.2768,3.2837,3.2903,3.305,3.3115,3.3227,3.3164,3.3285,3.3369,3.3354,3.3509,3.356,3.366,3.3834,3.3914,3.3881,3.4177,3.4092,3.4102,3.4113,3.4212,3.4239,3.4263,3.3948,3.3947,3.3945,0,0,3.2945,3.3006,3.3134,3.32,3.3298,3.3334,3.3364,3.3461,3.3493,3.3649,3.364,3.3742,3.3933,3.4005,3.4066,3.427,3.4259,3.4304,3.4398,3.4498,3.452,3.454,3.4614,3.464,3.4321,3.4321,3.4322,0,3.3014,3.318,3.3202,3.3324,3.3391,3.3378,3.351,3.3574,3.3703,3.375,3.3711,3.3951,3.4018,3.4209,3.4258,3.4308,3.4346,3.4292,3.4514,3.4535,3.4554,3.4625,3.4653,3.4326,3.4326,3.4325,3.4325,0,3.3262,3.3377,3.3469,3.3591,3.3668,3.3794,3.3838,3.3913,3.392,3.396,3.412,3.4199,3.4322,3.4368,3.4377,3.4562,3.4538,3.4507,3.4438,3.4585,3.4653,3.468,3.4333,3.4332,3.433,3.4329,0,0,3.3477,3.3608,3.3642,3.3697,3.3805,3.3896,3.4022,3.414,3.4205,3.4294,3.4403,3.4565,3.4536,3.4606,3.4623,3.471,3.4868,3.4668,3.4671,3.4704,3.5078,3.5102,3.5133,3.486,3.4866,3.487,3.507,0,3.3665,3.3885,3.3909,3.4108,3.4215,3.4205,3.4316,3.4395,3.4436,3.4536,3.4582,3.4696,3.4649,3.4691,3.4777,3.483,3.4944,3.4816,3.4965,3.497,3.4941,3.5168,3.5195,3.538,3.5097,3.5101,3.5104,0,3.3914,3.4008,3.4216,3.4308,3.4355,3.4453,3.4564,3.4658,3.4748,3.4772,3.485,3.4855,3.4988,3.4912,3.5098,3.5011,3.5073,3.5109,3.5116,3.5133,3.5047,3.5193,3.544,3.5468,3.5146,3.5142,3.514,0,3.4051,3.423,3.4378,3.4426,3.4537,3.4607,3.4657,3.4742,3.4811,3.4909,3.4955,3.5067,3.5129,3.5218,3.5254,3.5195,3.5439,3.5365,3.5465,3.5464,3.5518,3.5514,3.578,3.5555,3.5555,3.5554,3.5553,0,3.426,3.4389,3.4441,3.4533,3.4677,3.4704,3.4847,3.4894,3.497,3.5072,3.5071,3.5167,3.5208,3.5313,3.5342,3.5493,3.5521,3.5546,3.5552,3.5547,3.5544,3.559,3.5578,3.5561,3.556,3.5558,3.5557,0,3.4439,3.4479,3.464,3.4731,3.4757,3.486,3.4939,3.5029,3.5067,3.5197,3.5229,3.5292,3.5414,3.5458,3.5608,3.5628,3.5803,3.5798,3.5772,3.5774,3.5871,3.5862,3.6177,3.622,3.5965,3.5967,3.5969,0,3.457,3.4668,3.4769,3.4836,3.4888,3.4996,3.5066,3.5097,3.517,3.528,3.5358,3.5478,3.5577,3.5773,3.5834,3.5949,3.5948,3.605,3.5966,3.5957,3.5952,3.5946,3.5958,3.6067,3.607,3.6072,3.6073,0,3.48,3.4814,3.4914,3.5021,3.5104,3.5191,3.5275,3.5331,3.5374,3.5458,3.5581,3.5657,3.5809,3.593,3.6047,3.6102,3.6097,3.6099,3.6129,3.6125,3.6106,3.612,3.5817,3.6092,3.609,3.6089,3.6088,3.6087,3.496,3.5047,3.5132,3.5243,3.5309,3.5387,3.5476,3.5525,3.5628,3.5751,3.5763,3.5897,3.5986,3.6143,3.6203,3.631,3.6282,3.6324,3.6336,3.6346,3.6354,3.6087,3.6331,3.6331,3.633,3.633,3.6329,0,3.5191,3.5244,3.5346,3.5463,3.5551,3.5534,3.5626,3.5703,3.5819,3.5901,3.5997,3.614,3.6257,3.6326,3.6445,3.6517,3.6518,3.6548,3.6544,3.6557,3.6371,3.6334,3.6545,3.6545,3.6545,3.6545,3.6545,3.6545,3.5322,3.5468,3.5493,3.5673,3.5727,3.5855,3.5909,3.5983,3.6048,3.6207,3.6303,3.6346,3.6424,3.6548,3.6656,3.6673,3.6718,3.6751,3.6766,3.6592,3.657,3.6549,3.6514,3.676,3.676,3.6944,3.6945,3.6946]},{"header":{"parameterUnit":"m.s-1","parameterCategory":1,"la1":30.2991,"la2":30.254,"lo1":-89.0895,"lo2":-89.0444,"dy":0.0017,"dx":0.0017,"nx":28,"ny":28,"refTime":"2024-06-25T21:00:00:Z","depth":0,"parameterNumber":3,"parameterNumberName":"V-component_of_WINDS"},"data":[0,0,0,0,0,0,0,0,0,0,0,0,0,0,0,0,0,0,0,0,0,0,0,0,0,0,0,0,0,0,0,0,0,0,0,0,0,0,0,0,0,0,0,0,0,0,0,0,0,0,0,0,0,0,0,0,0,0,3.9764,3.9767,0,4.0041,4.0044,4.0048,4.0082,4.0079,4.0077,4.0074,4.0361,4.0371,4.0381,0,0,0,0,0,0,0,0,0,0,0,0,0,3.9268,3.9277,3.9764,3.9767,3.9771,4.0041,4.0045,4.0048,4.0082,4.0079,4.0076,4.0073,4.0358,4.037,4.0382,0,0,0,0,0,0,0,0,0,0,0,0,0,3.9508,3.928,3.9763,3.982,3.9828,4.004,4.0045,4.0049,4.0083,4.0079,4.0075,4.0071,4.0354,4.0369,4.0384,4.0559,0,0,4.043,4.0437,0,0,0,0,0,0,0,0,3.9495,3.9526,3.9808,3.9817,3.9826,4.0023,3.9975,4.022,4.0084,3.9986,4.0074,4.0069,4.0252,4.0275,4.0336,4.0572,4.0584,4.0431,4.0441,4.0447,4.0452,0,0,0,0,0,0,0,3.9478,3.9515,3.9874,3.9812,3.9823,3.9833,3.9863,4.0022,4.0139,3.9995,3.9998,4.003,4.0256,4.0322,4.0343,4.0589,4.0431,4.0445,4.0454,4.046,4.0985,4.0989,0,0,0,0,0,0,3.945,3.9501,3.9865,3.9882,3.9647,3.9846,3.9879,3.9964,4.0137,4.0159,4.0033,4.0031,4.0298,4.0326,4.0354,4.0572,4.0447,4.0461,4.047,4.098,4.0986,4.0991,0,0,0,0,0,0,3.9439,3.9482,3.9854,3.9692,3.974,3.9858,3.9954,3.9971,4.0037,4.0166,4.0187,4.0078,4.0295,4.0332,4.0508,4.0582,4.0468,4.0482,4.0974,4.0982,4.0988,4.1009,0,0,0,0,0,0,3.9425,3.9478,3.9545,3.9694,3.9749,4.0002,3.9958,3.998,4.0063,4.0062,4.0214,4.0236,4.0295,4.0485,4.0523,4.0601,4.0494,4.0968,4.0978,4.0986,4.1002,4.1016,4.1028,0,0,0,0,0,3.9407,3.954,3.9548,3.9592,3.9835,4.0006,4.0038,4.0103,4.0068,4.0138,4.0221,4.0231,4.0567,4.0503,4.0546,4.063,4.0964,4.0975,4.0985,4.0996,4.1013,4.1027,0,0,0,0,0,0,3.9398,3.956,3.9571,3.9756,3.9867,4.0012,4.0101,4.0118,4.0243,4.0237,4.0313,4.0347,4.052,4.0592,4.0517,4.081,4.0763,4.0783,4.0756,4.0773,4.0786,4.0766,4.0507,0,0,0,0,0,3.9417,3.9542,3.9678,3.9827,3.9882,3.9982,4.0059,4.01,4.0218,4.0266,4.0362,4.0477,4.061,4.0695,4.0824,4.1012,4.1047,4.1091,4.1104,4.1114,4.1131,4.1238,4.126,4.1026,4.1026,4.1026,0,0,3.9459,3.9563,3.9637,3.9828,3.9919,4.0048,4.0021,4.0159,4.0256,4.0287,4.0459,4.0533,4.0668,4.0851,4.0937,4.0917,4.1203,4.1128,4.1134,4.1147,4.1251,4.1274,4.1293,4.1034,4.1032,4.1031,0,0,3.9601,3.9691,3.9827,3.9918,4.0056,4.0121,4.0154,4.0297,4.0347,4.0521,4.0547,4.0664,4.089,4.0985,4.1063,4.1242,4.1257,4.1282,4.1349,4.1453,4.1471,4.1488,4.1554,4.1577,4.1298,4.1298,4.1298,0,3.9635,3.983,3.9894,4.0032,4.0116,4.0149,4.0288,4.0374,4.0547,4.0605,4.058,4.0865,4.0957,4.1164,4.1208,4.1269,4.1311,4.1266,4.1463,4.1481,4.1497,4.1561,4.1586,4.13,4.13,4.13,4.1299,0,3.9867,4.0001,4.0094,4.026,4.0355,4.0492,4.0579,4.0667,4.07,4.0768,4.0946,4.1058,4.121,4.1262,4.1295,4.1475,4.1459,4.1447,4.1402,4.1521,4.1582,4.1607,4.1303,4.1303,4.1302,4.1301,0,0,4.0011,4.0211,4.0245,4.0321,4.0476,4.0582,4.0721,4.087,4.0945,4.1063,4.1184,4.1374,4.1365,4.1454,4.1498,4.1588,4.1726,4.1567,4.1571,4.1594,4.1933,4.1942,4.1969,4.1735,4.174,4.1744,4.1923,0,4.0173,4.0421,4.0484,4.0697,4.0823,4.0857,4.0979,4.1088,4.1156,4.1274,4.1349,4.1484,4.146,4.1514,4.1605,4.1689,4.1795,4.1677,4.185,4.1856,4.1818,4.2001,4.2011,4.2174,4.1947,4.1951,4.1954,0,4.0394,4.0517,4.0742,4.0882,4.0937,4.1046,4.1188,4.13,4.1425,4.1468,4.1567,4.1602,4.1751,4.1696,4.1903,4.1821,4.1896,4.1948,4.1956,4.1976,4.1913,4.2029,4.2228,4.2253,4.1992,4.1989,4.1986,0,4.048,4.0701,4.0865,4.093,4.1096,4.1172,4.1245,4.1366,4.1451,4.1576,4.1633,4.1773,4.1851,4.1959,4.2032,4.1985,4.2234,4.2185,4.2276,4.2274,4.2328,4.2324,4.2544,4.2372,4.2372,4.2371,4.2371,0,4.0655,4.0792,4.0906,4.1007,4.1163,4.1234,4.1386,4.146,4.1567,4.1685,4.1722,4.1831,4.192,4.2042,4.21,4.2264,4.2298,4.2339,4.2353,4.2337,4.2332,4.2388,4.238,4.2378,4.2376,4.2375,4.2374,0,4.0778,4.0859,4.1041,4.1183,4.1222,4.1331,4.1454,4.1554,4.1623,4.1771,4.181,4.1918,4.2064,4.2147,4.2331,4.237,4.2553,4.256,4.2511,4.2517,4.2604,4.2596,4.287,4.2911,4.2709,4.2711,4.2712,0,4.0885,4.0991,4.1145,4.1226,4.13,4.143,4.1518,4.1592,4.1683,4.1834,4.1916,4.2064,4.2186,4.2418,4.2514,4.2655,4.2668,4.2754,4.269,4.2671,4.2673,4.2666,4.2678,4.2766,4.2768,4.2769,4.2771,0,4.1067,4.1103,4.1227,4.1367,4.1471,4.1584,4.1697,4.1762,4.1855,4.1955,4.2105,4.2199,4.2387,4.2534,4.2683,4.276,4.2783,4.279,4.2819,4.2805,4.2773,4.2794,4.2543,4.2784,4.2783,4.2782,4.2781,4.278,4.1187,4.1284,4.1408,4.1546,4.1639,4.1744,4.1846,4.1927,4.2053,4.2211,4.2247,4.2405,4.2529,4.2732,4.2812,4.2938,4.2923,4.2964,4.2975,4.2984,4.2989,4.275,4.2965,4.2965,4.2964,4.2964,4.2964,0,4.1374,4.1455,4.1581,4.1738,4.1848,4.1857,4.1983,4.2074,4.2212,4.2326,4.2445,4.2618,4.2761,4.2868,4.3015,4.3095,4.3109,4.3132,4.3128,4.3146,4.2993,4.2954,4.3118,4.3118,4.3118,4.3118,4.3118,4.3118,4.1484,4.1649,4.1699,4.1911,4.1992,4.2146,4.2218,4.2315,4.2406,4.2597,4.2716,4.2785,4.2897,4.3052,4.3184,4.3212,4.3266,4.3287,4.3317,4.3172,4.3156,4.314,4.3105,4.3297,4.3298,4.346,4.3461,4.3462]}]]